Location: St. Louis
(38.6270°N, 90.1994°W)
Time: 01:35:12
(UTC-06:00)

Courier 1B Rocket - Pass Details

Date: 03 December 2021
Orbit: 920 x 1202 km, 28.2° (Epoch: 16 January)

Event Time Altitude Azimuth Distance (km) Brightness Sun altitude
Rises 01:23:47 0° 254° (WSW) 3,560 - -64.1°
Reaches altitude 10° 01:26:41 10° 245° (WSW) 2,606 - -63.7°
Maximum altitude 01:32:03 31° 185° (S) 1,553 - -62.8°
Drops below altitude 10° 01:37:29 10° 125° (SE) 2,636 - -61.8°
Sets 01:40:26 0° 115° (ESE) 3,608 - -61.3°
